Brinson, GA

5:40 AM EDT on September 25, 2016 (GMT -0400)
Decatur County Industrial

Weather History for KBGE - February, 2014

Change the Weather History Date:

Thursday, February 13, 2014

  Actual Average (KMAI) Record (KMAI)
Temperature  
Mean Temperature 48 °F 54 °F  
Max Temperature 59 °F 66 °F 75 °F (2000)
Min Temperature 37 °F 43 °F 24 °F (2012)
Degree Days  
Heating Degree Days 17    
Month to date heating degree days  
Since 1 July heating degree days  
Cooling Degree Days 0    
Month to date cooling degree days  
Year to date cooling degree days  
Moisture  
Dew Point 36 °F    
Average Humidity 74    
Maximum Humidity 100    
Minimum Humidity 36    
Precipitation  
Precipitation 0.00 in 0.17 in 3.81 in (2000)
Month to date precipitation 2.20  
Year to date precipitation 7.24  
Sea Level Pressure  
Sea Level Pressure 29.89 in    
Wind  
Wind Speed 10 mph (WNW)    
Max Wind Speed 18 mph    
Max Gust Speed 24 mph    
Visibility 10 miles    
Events      
T = Trace of Precipitation, MM = Missing Value Source: NWS Daily Summary

Daily Weather History Graph

Daily Weather History Graph

Search for Another Location

Airport or City:

Trip Planner

Search our weather history database for the weather conditions in past years. The results will help you decide how hot, cold, wet, or windy it might be!

Date:

Astronomy

Feb. 13, 2014 Rise Set
Actual Time 7:21 AM EST 6:24 PM EST
Civil Twilight 6:56 AM EST 6:49 PM EST
Nautical Twilight 6:28 AM EST 7:17 PM EST
Astronomical Twilight 5:59 AM EST 7:46 PM EST
Moon 5:32 PM EST (2/13) 6:13 AM EST (2/13)
Length of Visible Light 11h 52m
Length of Day
11h 03m
Waxing Gibbous, 98% of the Moon is Illuminated
Feb 13
Waxing Gibbous
Feb 14
Full
Feb 22
Last Quarter
Mar 1
New
Mar 8
First Quarter

Hourly Weather History & Observations

Time (EST) Temp. Windchill Dew Point Humidity Pressure Visibility Wind Dir Wind Speed Gust Speed Precip Events Conditions
12:15 AM 39.2 °F 35.9 °F 37.4 °F 93% 29.78 in 10.0 mi NNW 4.6 mph - N/A   Overcast
12:35 AM 39.2 °F 35.0 °F 37.4 °F 93% 29.78 in 4.0 mi NNW 5.8 mph - N/A   Overcast
12:55 AM 39.2 °F 35.0 °F 37.4 °F 93% 29.78 in 5.0 mi NW 5.8 mph - N/A   Overcast
1:15 AM 39.2 °F 32.0 °F 37.4 °F 93% 29.78 in 5.0 mi NW 11.5 mph - N/A   Overcast
1:35 AM 39.2 °F 33.0 °F 37.4 °F 93% 29.79 in 10.0 mi NW 9.2 mph - N/A   Overcast
1:55 AM 37.4 °F 29.8 °F 37.4 °F 100% 29.79 in 10.0 mi NW 11.5 mph - N/A   Overcast
2:15 AM 37.4 °F 30.8 °F 37.4 °F 100% 29.80 in 5.0 mi NW 9.2 mph - N/A   Overcast
2:35 AM 39.2 °F 32.0 °F 37.4 °F 93% 29.80 in 10.0 mi NNW 11.5 mph - N/A   Overcast
2:55 AM 37.4 °F 28.2 °F 37.4 °F 100% 29.81 in 10.0 mi WNW 16.1 mph 19.6 mph N/A   Overcast
3:15 AM 37.4 °F 29.3 °F 35.6 °F 93% 29.81 in 10.0 mi WNW 12.7 mph 17.3 mph N/A   Overcast
3:35 AM 37.4 °F 30.3 °F 35.6 °F 93% 29.82 in 10.0 mi NW 10.4 mph - N/A   Overcast
3:55 AM 37.4 °F 29.3 °F 35.6 °F 93% 29.82 in 10.0 mi NW 12.7 mph - N/A   Overcast
4:15 AM 37.4 °F 31.4 °F 35.6 °F 93% 29.81 in 10.0 mi NW 8.1 mph - N/A   Overcast
4:35 AM 37.4 °F 29.3 °F 35.6 °F 93% 29.82 in 10.0 mi NW 12.7 mph - N/A   Overcast
4:55 AM 37.4 °F 30.8 °F 35.6 °F 93% 29.83 in 10.0 mi WNW 9.2 mph - N/A   Overcast
5:15 AM 39.2 °F 32.0 °F 37.4 °F 93% 29.83 in 10.0 mi WNW 11.5 mph - N/A   Overcast
5:35 AM 39.2 °F 31.6 °F 37.4 °F 93% 29.84 in 10.0 mi WNW 12.7 mph 19.6 mph N/A   Overcast
5:55 AM 39.2 °F 32.5 °F 35.6 °F 87% 29.84 in 10.0 mi WNW 10.4 mph - N/A   Overcast
6:15 AM 39.2 °F 33.0 °F 35.6 °F 87% 29.85 in 10.0 mi WNW 9.2 mph - N/A   Overcast
6:35 AM 39.2 °F 30.5 °F 35.6 °F 87% 29.86 in 10.0 mi WNW 16.1 mph 19.6 mph N/A   Overcast
6:55 AM 39.2 °F 30.5 °F 35.6 °F 87% 29.86 in 10.0 mi WNW 16.1 mph 24.2 mph N/A   Overcast
7:15 AM 39.2 °F 30.8 °F 35.6 °F 87% 29.87 in 10.0 mi NW 15.0 mph 24.2 mph N/A   Overcast
7:35 AM 39.2 °F 31.2 °F 35.6 °F 87% 29.88 in 10.0 mi NW 13.8 mph 19.6 mph N/A   Overcast
7:55 AM 39.2 °F 30.2 °F 35.6 °F 87% 29.89 in 10.0 mi WNW 17.3 mph 20.7 mph N/A   Overcast
8:15 AM 39.2 °F 32.5 °F 35.6 °F 87% 29.89 in 10.0 mi WNW 10.4 mph - N/A   Mostly Cloudy
8:35 AM 41.0 °F 33.5 °F 35.6 °F 81% 29.90 in 10.0 mi WNW 13.8 mph 24.2 mph N/A   Overcast
8:55 AM 41.0 °F 32.5 °F 35.6 °F 81% 29.92 in 10.0 mi WNW 17.3 mph - N/A   Overcast
9:15 AM 41.0 °F 32.8 °F 35.6 °F 81% 29.93 in 10.0 mi NW 16.1 mph 20.7 mph N/A   Overcast
9:35 AM 41.0 °F 32.5 °F 35.6 °F 81% 29.95 in 10.0 mi WNW 17.3 mph - N/A   Overcast
9:55 AM 41.0 °F 33.5 °F 35.6 °F 81% 29.95 in 10.0 mi WNW 13.8 mph 23.0 mph N/A   Overcast
10:15 AM 41.0 °F 34.7 °F 35.6 °F 81% 29.95 in 10.0 mi WNW 10.4 mph - N/A   Overcast
10:35 AM 42.8 °F 36.6 °F 35.6 °F 76% 29.95 in 10.0 mi WNW 11.5 mph 18.4 mph N/A   Overcast
10:55 AM 42.8 °F 36.2 °F 37.4 °F 81% 29.95 in 10.0 mi WNW 12.7 mph - N/A   Overcast
11:15 AM 44.6 °F 37.8 °F 37.4 °F 76% 29.94 in 10.0 mi NW 15.0 mph - N/A   Mostly Cloudy
11:35 AM 46.4 °F 40.1 °F 37.4 °F 71% 29.93 in 10.0 mi WNW 15.0 mph 23.0 mph N/A   Mostly Cloudy
11:55 AM 50.0 °F - 37.4 °F 62% 29.92 in 10.0 mi NW 15.0 mph 20.7 mph N/A   Scattered Clouds
12:15 PM 51.8 °F - 37.4 °F 58% 29.91 in 10.0 mi NW 16.1 mph 19.6 mph N/A   Scattered Clouds
12:35 PM 51.8 °F - 37.4 °F 58% 29.90 in 10.0 mi WNW 16.1 mph 19.6 mph N/A   Clear
12:55 PM 53.6 °F - 37.4 °F 54% 29.89 in 10.0 mi WNW 12.7 mph 19.6 mph N/A   Clear
1:15 PM 53.6 °F - 37.4 °F 54% 29.88 in 10.0 mi WNW 16.1 mph 20.7 mph N/A   Clear
1:35 PM 55.4 °F - 35.6 °F 47% 29.88 in 10.0 mi WNW 17.3 mph - N/A   Clear
1:55 PM 55.4 °F - 35.6 °F 47% 29.87 in 10.0 mi WNW 15.0 mph 21.9 mph N/A   Clear
2:35 PM 59.0 °F - 35.6 °F 42% 29.87 in 10.0 mi WNW 15.0 mph 20.7 mph N/A   Clear
2:55 PM 59.0 °F - 33.8 °F 39% 29.87 in 10.0 mi WNW 16.1 mph 24.2 mph N/A   Clear
3:15 PM 59.0 °F - 33.8 °F 39% 29.87 in 10.0 mi WNW 18.4 mph 21.9 mph N/A   Clear
3:35 PM 59.0 °F - 33.8 °F 39% 29.88 in 10.0 mi West 17.3 mph - N/A   Clear
3:55 PM 59.0 °F - 32.0 °F 36% 29.88 in 10.0 mi WNW 13.8 mph 19.6 mph N/A   Clear
4:15 PM 59.0 °F - 32.0 °F 36% 29.87 in 10.0 mi NW 11.5 mph - N/A   Clear
4:35 PM 59.0 °F - 32.0 °F 36% 29.88 in 10.0 mi NW 12.7 mph 18.4 mph N/A   Clear
4:55 PM 59.0 °F - 32.0 °F 36% 29.88 in 10.0 mi NW 13.8 mph - N/A   Clear
5:15 PM 59.0 °F - 32.0 °F 36% 29.89 in 10.0 mi NW 11.5 mph 18.4 mph N/A   Clear
5:35 PM 59.0 °F - 32.0 °F 36% 29.91 in 10.0 mi NW 12.7 mph - N/A   Clear
5:55 PM 55.4 °F - 32.0 °F 41% 29.91 in 10.0 mi NW 6.9 mph - N/A   Clear
6:15 PM 53.6 °F - 33.8 °F 47% 29.92 in 10.0 mi WNW 5.8 mph - N/A   Clear
6:35 PM 53.6 °F - 35.6 °F 51% 29.92 in 10.0 mi NW 4.6 mph - N/A   Clear
6:55 PM 50.0 °F - 35.6 °F 58% 29.92 in 10.0 mi West 3.5 mph - N/A   Clear
7:15 PM 46.4 °F 45.2 °F 35.6 °F 66% 29.92 in 10.0 mi West 3.5 mph - N/A   Clear
7:35 PM 44.6 °F 43.1 °F 37.4 °F 76% 29.93 in 10.0 mi West 3.5 mph - N/A   Clear
7:55 PM 44.6 °F 43.1 °F 37.4 °F 76% 29.94 in 10.0 mi West 3.5 mph - N/A   Clear
8:15 PM 46.4 °F 45.2 °F 35.6 °F 66% 29.95 in 10.0 mi WNW 3.5 mph - N/A   Clear
8:35 PM 42.8 °F 40.1 °F 37.4 °F 81% 29.95 in 10.0 mi West 4.6 mph - N/A   Clear
8:55 PM 42.8 °F - 37.4 °F 81% 29.95 in 10.0 mi Calm Calm - N/A   Clear
9:15 PM 42.8 °F 41.1 °F 37.4 °F 81% 29.96 in 10.0 mi WSW 3.5 mph - N/A   Clear
9:35 PM 41.0 °F 39.0 °F 37.4 °F 87% 29.96 in 10.0 mi West 3.5 mph - N/A   Clear
9:55 PM 41.0 °F - 35.6 °F 81% 29.97 in 10.0 mi Calm Calm - N/A   Clear
10:15 PM 41.0 °F - 37.4 °F 87% 29.97 in 10.0 mi Calm Calm - N/A   Clear
10:35 PM 41.0 °F - 37.4 °F 87% 29.98 in 10.0 mi Calm Calm - N/A   Clear
10:55 PM 39.2 °F - 35.6 °F 87% 29.98 in 10.0 mi Calm Calm - N/A   Clear
11:15 PM 41.0 °F - 37.4 °F 87% 29.98 in 10.0 mi Calm Calm - N/A   Clear
11:35 PM 41.0 °F 38.0 °F 35.6 °F 81% 29.98 in 10.0 mi West 4.6 mph - N/A   Clear
11:55 PM 37.4 °F 32.8 °F 35.6 °F 93% 29.99 in 10.0 mi West 5.8 mph - N/A   Clear